DW4238 Weather Reports


time (UTC)temp
C
wind
direction
speed
KPH
gust
KPH
rain 1hr
cm
rain 24hr
cm
rain mn
cm
humidity
%
barometer
mb
20210723152314 28 206 8.0 20.9 0.00 1.02 0.00 97 1020.8
20210723151322 28 198 11.3 16.1 0.00 1.02 0.00 98 1020.9
20210723150318 28 202 12.9 22.5 0.00 1.02 0.00 100 1020.9
20210723145309 28 182 14.5 19.3 0.00 1.02 0.00 100 1020.8
20210723144324 28 183 11.3 16.1 0.00 1.02 0.00 100 1020.8
20210723143311 27 189 11.3 22.5 0.00 1.02 0.00 100 1020.6
20210723142326 27 165 12.9 24.1 0.00 1.02 0.00 100 1020.6
20210723141314 27 168 12.9 17.7 0.00 1.02 0.00 100 1020.6
20210723140308 27 167 9.7 19.3 0.00 1.02 0.00 100 1020.5
20210723135316 27 175 8.0 14.5 0.00 1.02 0.00 100 1020.5
20210723134311 27 160 8.0 12.9 0.00 1.02 0.00 100 1020.5
20210723133316 26 162 6.4 11.3 0.00 1.02 0.00 100 1020.4
20210723132320 26 149 3.2 8.0 0.00 1.02 0.00 100 1020.4
20210723131325 26 159 6.4 11.3 0.00 1.02 0.00 100 1020.3
20210723130321 26 148 6.4 11.3 0.00 1.02 0.00 100 1020.2
20210723125326 25 144 6.4 12.9 0.00 1.02 0.00 100 1020.3
20210723124320 25 138 6.4 11.3 0.00 1.02 0.00 100 1020.2
20210723123326 25 146 3.2 6.4 0.00 1.02 0.00 100 1020.1
20210723122321 25 148 4.8 8.0 0.00 1.02 0.00 100 1020.0
20210723121310 25 148 4.8 8.0 0.00 1.02 0.00 100 1020.1
20210723120324 25 138 3.2 6.4 0.00 1.02 0.00 100 1019.9
20210723115312 25 146 4.8 6.4 0.00 1.02 0.00 100 1019.9
20210723114327 25 150 0.0 4.8 0.00 1.02 0.00 100 1019.7
20210723113315 25 150 3.2 4.8 0.00 1.02 0.00 100 1019.6
20210723112327 25 150 4.8 8.0 0.00 1.02 1.02 100 1019.5
20210723111314 24 150 4.8 8.0 0.00 1.02 1.02 100 1019.3
20210723110327 24 141 4.8 11.3 0.00 1.02 1.02 100 1019.2
20210723105315 24 144 4.8 8.0 0.00 1.02 1.02 100 1019.2
20210723104309 24 138 0.0 0.0 0.00 1.02 1.02 100 1019.2
20210723103317 24 138 0.0 0.0 0.00 1.02 1.02 100 1019.2
20210723102316 24 138 0.0 0.0 0.00 1.02 1.02 100 1019.2
20210723101321 24 134 3.2 6.4 0.00 1.02 1.02 100 1019.3
20210723100316 24 139 4.8 6.4 0.00 1.02 1.02 100 1019.3
20210723095323 24 150 3.2 8.0 0.00 1.02 1.02 100 1019.3
20210723094317 24 159 4.8 8.0 0.00 1.02 1.02 100 1019.2
20210723093324 24 159 0.0 0.0 0.00 1.02 1.02 100 1019.3
20210723092319 24 159 0.0 0.0 0.00 1.02 1.02 100 1019.3
20210723091332 24 159 0.0 4.8 0.00 1.02 1.02 100 1019.2
20210723090321 24 159 4.8 4.8 0.00 1.02 1.02 100 1019.3
20210723085334 24 159 3.2 9.7 0.00 1.02 1.02 100 1019.3
20210723084322 24 159 6.4 8.0 0.00 1.02 1.02 100 1019.3
20210723083310 24 159 6.4 9.7 0.00 1.02 1.02 100 1019.3
20210723082325 24 159 6.4 9.7 0.00 1.02 1.02 100 1019.4
20210723081313 24 150 4.8 9.7 0.00 1.02 1.02 100 1019.4
20210723080327 24 150 4.8 9.7 0.00 1.02 1.02 100 1019.4
20210723075315 24 150 4.8 8.0 0.00 1.02 1.02 100 1019.4
20210723074309 24 150 6.4 9.7 0.00 1.02 1.02 100 1019.4
20210723073317 24 150 4.8 11.3 0.00 1.02 1.02 100 1019.3
20210723072312 24 148 4.8 9.7 0.00 1.02 1.02 100 1019.3
20210723071320 24 128 0.0 0.0 0.00 1.02 1.02 100 1019.3
20210723070316 24 128 0.0 0.0 0.03 1.02 1.02 100 1019.4
20210723065330 24 127 0.0 0.0 0.03 1.02 1.02 100 1019.4
20210723064318 24 127 0.0 0.0 0.03 1.02 1.02 100 1019.3
20210723063310 24 127 0.0 0.0 0.03 1.02 1.02 100 1019.4
20210723062325 24 127 0.0 0.0 0.03 1.02 1.02 100 1019.3
20210723061313 24 127 0.0 4.8 0.03 1.02 1.02 100 1019.3
20210723060328 24 127 3.2 6.4 0.00 0.99 0.99 100 1019.2
20210723055315 24 127 3.2 6.4 0.00 0.99 0.99 100 1019.2
20210723054310 24 113 3.2 6.4 0.00 0.99 0.99 100 1019.1
20210723053318 24 121 4.8 6.4 0.00 0.99 0.99 100 1019.1
20210723052313 24 147 4.8 8.0 0.00 0.99 0.99 100 1019.1
20210723051328 24 138 0.0 6.4 0.00 0.99 0.99 100 1019.1
20210723050316 24 139 3.2 6.4 0.00 0.99 0.99 100 1019.1
20210723045330 24 132 0.0 4.8 0.00 0.99 0.99 100 1019.1
20210723044318 24 157 0.0 0.0 0.00 0.99 0.99 100 1019.1
20210723043332 24 141 0.0 8.0 0.00 0.99 0.99 100 1019.1
20210723042316 24 142 1.6 6.4 0.00 0.99 0.99 100 1019.0
20210723041331 24 119 4.8 8.0 0.00 0.99 0.99 100 1019.0
20210723040317 24 146 3.2 8.0 0.00 0.99 0.99 100 1019.1
20210723035331 24 146 4.8 11.3 0.00 0.99 0.99 100 1018.9
20210723034319 24 149 6.4 8.0 0.00 0.99 0.99 100 1018.9
20210723033334 23 155 4.8 9.7 0.00 0.99 0.99 100 1018.8
20210723032322 23 146 4.8 11.3 0.00 0.99 0.99 100 1018.8
20210723031318 23 148 0.0 11.3 0.00 0.99 0.99 100 1018.9
20210723030323 23 150 6.4 11.3 0.00 0.99 0.99 100 1018.9
20210723025317 23 146 6.4 12.9 0.00 0.99 0.99 100 1018.9
20210723024323 23 149 6.4 9.7 0.00 0.99 0.99 100 1018.9
20210723023322 23 142 6.4 11.3 0.00 0.99 0.99 100 1019.0
20210723022310 23 130 8.0 12.9 0.03 0.99 0.99 100 1019.1
20210723021325 23 146 6.4 11.3 0.03 0.99 0.99 100 1019.3
20210723020312 23 126 1.6 8.0 0.05 0.99 0.99 100 1019.3
20210723015327 23 137 0.0 0.0 0.08 0.99 0.99 100 1019.5
20210723014313 23 165 0.0 0.0 0.10 0.99 0.99 100 1019.2
20210723013328 23 165 0.0 4.8 0.13 0.99 0.99 100 1019.2
20210723012315 23 163 3.2 9.7 0.13 0.97 0.97 100 1019.2
20210723011310 23 179 0.0 9.7 0.18 0.94 0.94 100 1019.1
20210723010316 23 188 8.0 12.9 0.20 0.94 0.94 100 1019.2
20210723005311 23 194 6.4 12.9 0.20 0.91 0.91 100 1019.2
20210723004319 23 209 8.0 16.1 0.46 0.89 0.89 100 1019.2
20210723003313 23 169 8.0 14.5 0.81 0.86 0.86 100 1019.3
20210723002322 23 219 6.4 12.9 0.81 0.84 0.84 100 1019.3
20210723001313 24 229 4.8 11.3 0.76 0.76 0.76 97 1019.2
20210723000321 24 243 8.0 14.5 0.74 0.74 0.74 97 1019.4
20210722235315 24 300 11.3 24.1 0.71 0.71 0.71 97 1019.4
20210722234324 25 246 20.9 35.4 0.38 0.38 0.38 93 1019.3
20210722233319 27 212 11.3 20.9 0.03 0.03 0.03 81 1018.6
20210722232333 28 180 6.4 25.7 0.03 0.10 0.03 76 1017.9
20210722231321 30 198 14.5 27.4 0.00 0.08 0.00 70 1017.9
20210722230308 31 169 12.9 19.3 0.00 0.08 0.00 67 1017.7
20210722225307 31 203 12.9 19.3 0.00 0.08 0.00 66 1017.8
20210722224316 31 178 17.7 25.7 0.00 0.08 0.00 64 1017.9
20210722223309 31 204 16.1 22.5 0.00 0.08 0.00 64 1017.7
20210722222316 31 165 20.9 27.4 0.00 0.08 0.00 67 1017.5
20210722221312 31 165 17.7 27.4 0.00 0.08 0.00 66 1017.4
20210722220320 31 130 17.7 24.1 0.00 0.08 0.00 67 1017.3
20210722215332 31 161 16.1 25.7 0.00 0.08 0.00 67 1017.4
20210722214320 31 221 9.7 16.1 0.00 0.08 0.00 63 1017.6
20210722213308 31 209 9.7 16.1 0.00 0.08 0.00 65 1017.9
20210722212323 31 186 9.7 16.1 0.00 0.08 0.00 64 1017.9
20210722211311 31 192 11.3 22.5 0.00 0.08 0.00 66 1018.1
20210722210326 32 127 11.3 20.9 0.00 0.08 0.00 68 1018.0
20210722205314 32 180 16.1 27.4 0.00 0.08 0.00 63 1018.0
20210722204307 31 184 16.1 27.4 0.00 0.08 0.00 66 1018.1
20210722203315 31 172 16.1 19.3 0.00 0.08 0.00 67 1018.1
20210722202309 31 156 11.3 17.7 0.00 0.08 0.00 69 1018.3
20210722201318 31 173 16.1 22.5 0.00 0.08 0.00 69 1018.4
20210722200313 31 206 14.5 29.0 0.00 0.08 0.00 68 1018.5
20210722195320 31 207 8.0 17.7 0.00 0.08 0.00 64 1018.6
20210722194315 31 169 11.3 16.1 0.00 0.08 0.00 68 1018.7
20210722193329 31 192 9.7 17.7 0.00 0.08 0.00 66 1018.8
20210722192317 31 172 11.3 19.3 0.00 0.08 0.00 67 1019.0
20210722191332 31 205 8.0 19.3 0.00 0.08 0.00 67 1019.0
20210722190318 31 194 9.7 17.7 0.00 0.08 0.00 66 1019.2
20210722185332 31 241 12.9 19.3 0.00 0.08 0.00 68 1019.4
20210722184320 31 219 8.0 16.1 0.00 0.08 0.00 65 1019.5
20210722183312 31 217 9.7 16.1 0.00 0.08 0.00 66 1019.6
20210722182327 31 153 9.7 19.3 0.00 0.08 0.00 66 1019.7
20210722181314 31 178 9.7 17.7 0.00 0.08 0.00 66 1019.8
20210722180310 31 226 12.9 19.3 0.00 0.08 0.00 67 1019.9
20210722175325 30 189 12.9 19.3 0.00 0.08 0.00 67 1019.9
20210722174312 30 225 11.3 19.3 0.00 0.08 0.00 68 1020.0
20210722173327 30 230 12.9 22.5 0.00 0.08 0.00 66 1020.1
20210722172315 30 191 17.7 29.0 0.00 0.08 0.00 66 1020.3
20210722171331 30 166 12.9 19.3 0.00 0.08 0.00 67 1020.3
20210722170318 30 203 12.9 20.9 0.00 0.08 0.00 66 1020.4
20210722165334 30 169 12.9 22.5 0.00 0.08 0.00 68 1020.4
20210722164322 30 229 12.9 25.7 0.00 0.08 0.00 66 1020.4
20210722163309 30 206 11.3 19.3 0.00 0.08 0.00 64 1020.4
20210722162324 29 234 14.5 20.9 0.00 0.08 0.00 65 1020.3
20210722161312 29 192 16.1 22.5 0.00 0.08 0.00 64 1020.3
20210722160326 29 219 12.9 22.5 0.00 0.08 0.00 66 1020.3
20210722155313 29 202 16.1 27.4 0.00 0.08 0.00 65 1020.2
20210722154320 29 232 12.9 17.7 0.00 0.08 0.00 67 1020.2
20210722153315 28 187 17.7 22.5 0.00 0.08 0.00 68 1020.1